NOAA 16 DEB, 41290

Orbit data source: Space-Track

NOAA 16 DEB, 41290 is space debris in SSO originally from a launch on Thu, 21 Sep 2000 UTC launched from the Air Force Western Test Range (AFWTR). Debris objects in space refer to the collection of defunct objects orbiting the Earth. Examples of debris include non-operational satellites, rocket bodies, and fragments generated from explosions, collisions, or faulty payload assembly.

Loading next visibility...
Identifier
41290, 2000-055GS
Orbit
SSO
Country
Flag of USUS
Related business
Manufacturer
Unknown
Mission
Spacecraft
Bus & Motor
Unknown
Mass
Unknown
Launch date (UTC)
2000-09-21 (26 years ago)
Launch vehicle
Unknown
Launch site
Air Force Western Test Range (AFWTR)
Object type
Payload
Rocket body
Debris
Shape & HBR
Unknown shape, 0.1 m
Radar Cross Section
Small (<0.1 m²)

Expand to show TLE details & history
Last TLE update: 17 hours ago

TLE from 17 hours ago
0 NOAA 16 DEB
1 41290U 00055GS  26107.11648776  .00009231  00000-0  15018-2 0  9994
2 41290  99.0033 348.8365 0012280 297.0242  62.9708 14.71264349537769
Epoch: 2026-04-17T02:47Z
TLE epoch observation values (Epoch: 2026-04-17T02:47:44.542Z)
Latitude
Longitude
101.64661°
Altitude
656.091 km
Speed
7.532 km/s
True Right ascension
23h 15m 20s
True Declination
0° 00' 00"
Sunlit
Object was in daylight at epoch
Visualization orbit readout
Latitude
Unknown
Longitude
Unknown
Altitude
Unknown
Speed
Unknown
Apparent Right ascension
Unknown
Apparent Declination
Unknown
Sunlit
N/A
Visualization observer readout
Local Sidereal Time
02:04:17
Azimuth
Unknown
Elevation
Unknown
Doppler factor
Unknown
Orbital elements
Apogee altitude
662.775 km
Perigee altitude
645.504 km
Semi-major axis
7,032.277 km
Eccentricity
0.00123
Inclination
99.0033°
RAAN
348.8365°
Arg. of periapsis
297.0242°
True anomaly
63.09624°
Mean anomaly
62.9708°
Eccentric anomaly
63.03351°
Mean motion
3.68044 °/min
Orbital period
97.81 mins
BSTAR
0.0015018
Loading maneuver chart data...
Computing Atmospheric mass density...
Loading historical data...
Loading historical data...
Loading historical data...
Loading historical data...
Loading historical data...
Loading historical data...
Loading historical data...

Documentation

Showing up to 5 results
|